STARLINK-32492, 62050

Orbit data source: Space-Track

STARLINK-32492, 62050 is a payload satellite owned by SpaceX/Seattle (US) in LEO that was launched on Thu, 21 Nov 2024 UTC via an FALCON 9 launch vehicle from the Air Force Eastern Test Range (AFETR). Payload-class satellites include a variety of spacecraft equipped with specific instruments for various scientific and technological missions. These include communications satellites like Starlink; space stations such as the ISS; scientific satellites like the Hubble; Earth observation satellites from companies like Planet Labs, Umbra, and HawkEye 360; GPS; miniature CubeSats for education and research; and military/defense satellites.

Loading next visibility...
Identifier
62050, 2024-216U
Orbit
LEO
Country
Flag of USUS
Related business
Manufacturer
SpaceX/Seattle
Mission
Operational Commercial Communications
Bus & Motor
STARLINK V2M, Unknown motor
Mass
730 kg wet, ~700 kg dry
Launch date (UTC)
2024-11-21 (2 years ago)
Launch vehicle
FALCON 9
Launch site
Air Force Eastern Test Range (AFETR)
Object type
Payload
Rocket body
Debris
Shape & HBR
Box + 2 Pan, 17.7 m
Radar Cross Section
33.884 m², Large (>1 m²)

Expand to show TLE details & history
Last TLE update: 6 hours ago

TLE from 6 hours ago
0 STARLINK-32492
1 62050U 24216U   26227.96066545  .00007049  00000-0  26535-3 0  9992
2 62050  42.9975  83.8023 0000736 319.1436  40.9361 15.27589002 98153
Epoch: 2026-08-15T23:03Z
TLE epoch observation values (Epoch: 2026-08-15T23:03:21.494Z)
Latitude
0.00001°
Longitude
133.59871°
Altitude
482.416 km
Speed
7.626 km/s
True Right ascension
05h 35m 12s
True Declination
0° 00' 00"
Sunlit
Object was in daylight at epoch
Visualization orbit readout
Latitude
Unknown
Longitude
Unknown
Altitude
Unknown
Speed
Unknown
Apparent Right ascension
Unknown
Apparent Declination
Unknown
Sunlit
N/A
Visualization observer readout
Local Sidereal Time
19:36:18
Azimuth
Unknown
Elevation
Unknown
Doppler factor
Unknown
Orbital elements
Apogee altitude
485.473 km
Perigee altitude
484.463 km
Semi-major axis
6,863.105 km
Eccentricity
0.00007
Inclination
42.9975°
RAAN
83.8023°
Arg. of periapsis
319.1436°
True anomaly
40.94163°
Mean anomaly
40.9361°
Eccentric anomaly
40.93886°
Mean motion
3.81735 °/min
Orbital period
94.31 mins
BSTAR
0.00026535
Loading maneuver chart data...
Computing Atmospheric mass density...
Loading historical data...
Loading historical data...
Loading historical data...
Loading historical data...
Loading historical data...
Loading historical data...
Loading historical data...

Documentation

Showing up to 5 results
|